User: anonymous   Login
Location: Kernascl�den
(48.0062°N, 3.3198°W)
Time: 22:43:33
(UTC+00:00)
Language:

Cosmos 1553 Rocket - Orbit

View from above orbital plane
View from above orbital plane
View from above satellite
View from above satellite

Ground track
Ground track

The orbit data is extracted from the following two-line orbital elements,

1 14974U 84046B   21110.55540904  .00000016  00000-0  23714-6 0  9994
2 14974  82.9379 178.2194 0045776  35.3984  75.6295 13.76936596855083
Epoch (UTC): 20 April 2021 13:19:47
Eccentricity: 0.0045776
inclination: 82.9379°
perigee height: 941 km
apogee height: 1008 km
right ascension of ascending node: 178.2194°
argument of perigee: 35.3984°
revolutions per day: 13.76936596
mean anomaly at epoch: 75.6295°
orbit number at epoch: 85508

The dashed part of the orbit path shows where the satellite is in the earth's shadow,  

DLR